NETSAT-1

Last updated on Wed Sep 17 2025 00:03:49 GMT+0000 (Coordinated Universal Time)

1 46506U 20068W 25259.40779040 .00012154 00000+0 47591-3 0 9992 2 46506 97.8584 238.8041 0004390 231.3212 128.7632 15.25958060273428
UTC large
Height (km)
Speed (km/s)
/
Latitude / Longitude
Inclination (degrees)
Orbital Period (minutes)
Azimuth
Elevation
Range (km)
Doppler Factor

Next 0 passes for location: London (51.5072 / 0.1276)

Sorry there are no passes over London.